TAM3672 SBGL-SBSV

Flight info

Callsign TAM3672
Flight time N/A
Altitude 35000
Route IMBAP UZ42 SIRAP DCT OSAGU DCT ZUMBA
Aircraft A320/M-SDE3FGHIRWY/LB1

Departure

Time 2026-05-06 15:12
Airport Rio Galeão – Tom Jobim International Airport (SBGL)

Arrival

Time N/A
Airport Deputado Luiz Eduardo Magalhães International Airport (SBSV)
Time Latitude Longitude Altitude Speed Heading
2026-05-06 14:49 -22.81267 -43.25084 25 ft 0 kts 358°
2026-05-06 15:04 -22.81275 -43.25084 49 ft 3 kts 355°
2026-05-06 15:04 -22.81297 -43.25080 20 ft 3 kts 336°
2026-05-06 15:04 -22.81314 -43.25068 23 ft 3 kts 296°
2026-05-06 15:05 -22.81318 -43.25055 23 ft 0 kts 264°
2026-05-06 15:07 -22.81321 -43.25088 23 ft 9 kts 263°
2026-05-06 15:07 -22.81325 -43.25181 21 ft 16 kts 283°
2026-05-06 15:08 -22.81261 -43.25286 22 ft 17 kts 313°
2026-05-06 15:08 -22.81170 -43.25359 23 ft 15 kts 335°
2026-05-06 15:08 -22.81074 -43.25385 22 ft 13 kts 354°
2026-05-06 15:08 -22.80990 -43.25381 22 ft 11 kts
2026-05-06 15:09 -22.80948 -43.25428 24 ft 7 kts 297°
2026-05-06 15:09 -22.80927 -43.25475 27 ft 7 kts 295°
2026-05-06 15:09 -22.80899 -43.25538 27 ft 13 kts 296°
2026-05-06 15:09 -22.80839 -43.25659 28 ft 20 kts 311°
2026-05-06 15:10 -22.80711 -43.25637 29 ft 22 kts 31°
2026-05-06 15:10 -22.80583 -43.25545 29 ft 18 kts 34°
2026-05-06 15:10 -22.80499 -43.25563 31 ft 14 kts 322°
2026-05-06 15:10 -22.80393 -43.25621 29 ft 19 kts
2026-05-06 15:11 -22.80272 -43.25533 28 ft 11 kts 36°
2026-05-06 15:11 -22.80196 -43.25474 25 ft 17 kts 36°
2026-05-06 15:11 -22.80145 -43.25342 26 ft 23 kts 75°
2026-05-06 15:11 -22.80043 -43.24948 27 ft 89 kts 75°
2026-05-06 15:12 -22.79824 -43.24095 28 ft 144 kts 74°
2026-05-06 15:12 -22.79527 -43.22887 115 ft 180 kts 76°
2026-05-06 15:12 -22.79212 -43.21576 774 ft 179 kts 78°
2026-05-06 15:12 -22.79038 -43.20683 1073 ft 188 kts 78°
2026-05-06 15:13 -22.78744 -43.19215 1342 ft 211 kts 78°
2026-05-06 15:13 -22.78286 -43.16996 1818 ft 244 kts 77°
2026-05-06 15:13 -22.77894 -43.15138 2373 ft 259 kts 77°
2026-05-06 15:13 -22.77484 -43.13229 3223 ft 261 kts 77°
2026-05-06 15:14 -22.77067 -43.11307 4110 ft 262 kts 76°
2026-05-06 15:14 -22.76644 -43.09375 4991 ft 264 kts 76°
2026-05-06 15:14 -22.76354 -43.08063 5547 ft 266 kts 76°
2026-05-06 15:14 -22.75908 -43.06107 6365 ft 269 kts 72°
2026-05-06 15:15 -22.75074 -43.04282 7116 ft 274 kts 54°
2026-05-06 15:15 -22.73698 -43.02848 7873 ft 279 kts 33°
2026-05-06 15:15 -22.71929 -43.02039 8606 ft 284 kts 12°
2026-05-06 15:15 -22.69962 -43.01711 9371 ft 287 kts 12°
2026-05-06 15:16 -22.67995 -43.01259 10127 ft 291 kts 14°
2026-05-06 15:16 -22.65990 -43.00721 10538 ft 307 kts 15°
2026-05-06 15:16 -22.63839 -43.00124 10741 ft 329 kts 15°
2026-05-06 15:16 -22.61582 -42.99511 11249 ft 338 kts 15°
2026-05-06 15:17 -22.59276 -42.98906 11902 ft 343 kts 14°
2026-05-06 15:17 -22.56946 -42.98312 12562 ft 347 kts 14°
2026-05-06 15:17 -22.54584 -42.97721 13205 ft 350 kts 13°
2026-05-06 15:17 -22.52197 -42.97130 13834 ft 354 kts 13°
2026-05-06 15:18 -22.49785 -42.96540 14422 ft 356 kts 14°
2026-05-06 15:18 -22.47357 -42.95947 14971 ft 360 kts 14°
2026-05-06 15:18 -22.44900 -42.95343 15469 ft 364 kts 13°
2026-05-06 15:18 -22.42416 -42.94727 15977 ft 368 kts 13°
2026-05-06 15:19 -22.39900 -42.94103 16474 ft 373 kts 13°
2026-05-06 15:19 -22.37350 -42.93475 16982 ft 377 kts 12°
2026-05-06 15:19 -22.34775 -42.92848 17488 ft 382 kts 11°
2026-05-06 15:19 -22.32163 -42.92514 17976 ft 385 kts
2026-05-06 15:20 -22.29482 -42.92709 18491 ft 388 kts 350°
2026-05-06 15:20 -22.26801 -42.93153 18958 ft 391 kts 350°
2026-05-06 15:20 -22.24105 -42.93602 19427 ft 393 kts 350°
2026-05-06 15:20 -22.21385 -42.94058 19882 ft 396 kts 350°
2026-05-06 15:21 -22.18630 -42.94290 20332 ft 400 kts